LEMUR-2-TRUTNAHD (42069 NORAD) Tracking and Keplerian Element Data

This shows tracking and keplerian element data for the satellite.

Feedback or suggestion? Click here.




ElementValue
Catalog42069
NameLEMUR-2-TRUTNAHD
Epoch Orbit9695
Epoch Day317.41612592
Epoch Year2018
RAAN277.8449
Inclination51.6091
Eccentricity0.0001444
Argument of Perigee157.4191
Mean Anonmoly202.7513
Mean Motion16.39515188
Decay Rate0.10409091
L11 42069U 98067LE 18317.41612592 .10409091 12363-4 80363-3 0 9997
L22 42069 51.6091 277.8449 0001444 157.4191 202.7513 16.39515188 96953

Live tracking and technical data element details for LEMUR-2-TRUTNAHD (NORAD 42069). LEMUR-2-TRUTNAHD can be tracked NOW for your location showing map with azimuth and elevation plus other details from your city location.

Track the satellite on the map from your city or location and see movement details for azimuth, elevation, latitude, longitude, range, height, and movement on the map or in text.







IsCatalogInMostPopularTable: catalog: 42069, numindb: 170
Update: records affected: 1



GetName: 42069 LEMUR-2-TRUTNAHD

Hit Count: updated at: Fri, 16 Nov 2018 09:46:18 GMT